This demonstration page uses our WeatherBlox Daily Observations layout. Learn more.

38.89511, -77.03637

Hourly Observations for March 24, 2015

Temp ( °F °C ) Dew Point ( °F °C ) Humidity (%) Winds ( mph kmh ) Pressure ( in mb ) Visibility ( mi km ) Precip ( " mm )
12:52 am 00:52 Cloudy 43 6 18 -8 36 36 E 3 6 30.27 1025 10 16.09344 0 0
1:52 am 01:52 Cloudy 43 6 18 -8 36 36 E 5 7 30.27 1025 10 16.09344 0 0
2:52 am 02:52 Cloudy 43 6 19 -7 39 39 ESE 6 9 30.27 1025 10 16.09344 0 0
3:52 am 03:52 Cloudy 43 6 19 -7 39 39 E 7 11 30.27 1025 10 16.09344 0 0
4:52 am 04:52 Cloudy 43 6 19 -7 39 39 ENE 8 13 30.27 1025 10 16.09344 0 0
5:52 am 05:52 Cloudy 41 5 21 -6 45 45 E 9 15 30.27 1025 10 16.09344 0 0
6:52 am 06:52 Cloudy 39 4 21 -6 48 48 ENE 8 13 30.3 1026 10 16.09344 0 0
7:52 am 07:52 Cloudy 39 4 19 -7 45 45 E 9 15 30.3 1026 10 16.09344 0 0
8:52 am 08:52 Cloudy 39 4 19 -7 45 45 ENE 8 13 30.33 1027 10 16.09344 0 0
9:52 am 09:52 Cloudy 39 4 18 -8 42 42 E 7 11 30.33 1027 10 16.09344 0 0
10:52 am 10:52 Cloudy 43 6 16 -9 34 34 ENE 8 13 30.36 1028 10 16.09344 0 0
11:52 am 11:52 Cloudy 43 6 18 -8 36 36 E 5 7 30.36 1028 10 16.09344 0 0
12:52 pm 12:52 Cloudy 45 7 18 -8 34 34 ENE 3 6 30.33 1027 10 16.09344 0 0
1:52 pm 13:52 Cloudy 45 7 18 -8 34 34 ENE 3 6 30.33 1027 10 16.09344 0 0
2:52 pm 14:52 Cloudy 46 8 18 -8 32 32 Calm 30.33 1027 10 16.09344 0 0
3:52 pm 15:52 Mostly Cloudy 46 8 19 -7 34 34 NE 5 7 30.33 1027 10 16.09344 0 0
4:52 pm 16:52 Mostly Cloudy 46 8 21 -6 37 37 ENE 9 15 30.33 1027 10 16.09344 0 0
5:52 pm 17:52 Mostly Cloudy 46 8 19 -7 34 34 E 7 11 30.33 1027 10 16.09344 0 0
6:52 pm 18:52 Partly Cloudy 46 8 19 -7 34 34 Calm 30.36 1028 10 16.09344 0 0
7:52 pm 19:52 Partly Cloudy 45 7 21 -6 39 39 E 8 13 30.36 1028 10 16.09344 0 0
8:52 pm 20:52 Partly Cloudy 43 6 21 -6 42 42 ESE 6 9 30.39 1029 10 16.09344 0 0
9:52 pm 21:52 Partly Cloudy 41 5 21 -6 45 45 E 6 9 30.39 1029 10 16.09344 0 0
10:52 pm 22:52 Mostly Cloudy 39 4 19 -7 45 45 E 3 6 30.39 1029 10 16.09344 0 0
11:52 pm 23:52 Mostly Cloudy 37 3 21 -6 52 52 ENE 6 9 30.39 1029 10 16.09344 0 0

Powered by AerisWeather